TimeCST,TemperatureF,Dew PointF,Humidity,Sea Level PressureIn,VisibilityMPH,Wind Direction,Wind SpeedMPH,Gust SpeedMPH,PrecipitationIn,Events,Conditions,WindDirDegrees,DateUTC
12:15 AM,12.2,6.8,79,30.29,4.0,NE,13.8,-,N/A,Snow,Light Snow,50,2014-02-04 06:15:00
12:35 AM,12.2,6.8,79,30.29,4.0,NE,11.5,-,N/A,Snow,Light Snow,50,2014-02-04 06:35:00
12:55 AM,12.2,6.8,79,30.30,5.0,NE,10.4,-,N/A,Snow,Light Snow,40,2014-02-04 06:55:00
1:15 AM,10.4,5.0,79,30.31,6.0,NE,11.5,-,N/A,Snow,Light Snow,50,2014-02-04 07:15:00
1:35 AM,10.4,5.0,79,30.30,4.0,NE,12.7,-,N/A,Snow,Light Snow,50,2014-02-04 07:35:00
1:55 AM,10.4,5.0,79,30.30,4.0,NE,13.8,-,N/A,Snow,Light Snow,50,2014-02-04 07:55:00
2:15 AM,10.4,5.0,79,30.31,4.0,NE,13.8,-,N/A,Snow,Light Snow,40,2014-02-04 08:15:00
2:35 AM,10.4,5.0,79,30.31,6.0,NE,17.3,-,N/A,Snow,Light Snow,40,2014-02-04 08:35:00
2:55 AM,10.4,5.0,79,30.31,5.0,NE,12.7,-,N/A,Snow,Light Snow,50,2014-02-04 08:55:00
3:15 AM,10.4,5.0,79,30.31,5.0,NE,13.8,-,N/A,Snow,Light Snow,50,2014-02-04 09:15:00
3:35 AM,10.4,5.0,79,30.31,7.0,NE,12.7,19.6,N/A,Snow,Light Snow,50,2014-02-04 09:35:00
3:55 AM,10.4,5.0,79,30.31,8.0,NE,13.8,-,N/A,Rain,Freezing Rain,40,2014-02-04 09:55:00
4:15 AM,10.4,5.0,79,30.31,10.0,NE,16.1,-,N/A,Snow,Light Snow,40,2014-02-04 10:15:00
4:35 AM,10.4,5.0,79,30.32,10.0,NE,16.1,-,N/A,Snow,Light Snow,50,2014-02-04 10:35:00
4:55 AM,10.4,5.0,79,30.32,10.0,NE,16.1,-,N/A,,Overcast,50,2014-02-04 10:55:00
5:15 AM,10.4,5.0,79,30.32,10.0,ENE,17.3,-,N/A,,Overcast,60,2014-02-04 11:15:00
5:35 AM,10.4,5.0,79,30.33,10.0,ENE,12.7,-,N/A,Snow,Light Snow,60,2014-02-04 11:35:00
5:55 AM,10.4,5.0,79,30.33,10.0,ENE,16.1,-,N/A,Snow,Light Snow,60,2014-02-04 11:55:00
6:15 AM,10.4,5.0,79,30.34,7.0,NE,16.1,-,N/A,Snow,Light Snow,40,2014-02-04 12:15:00
6:35 AM,8.6,3.2,79,30.33,9.0,NNE,19.6,-,N/A,Rain,Freezing Rain,30,2014-02-04 12:35:00
6:55 AM,8.6,3.2,79,30.34,10.0,NNE,19.6,-,N/A,Rain,Freezing Rain,30,2014-02-04 12:55:00
7:15 AM,6.8,1.4,79,30.35,10.0,NNE,12.7,19.6,N/A,Rain,Freezing Rain,30,2014-02-04 13:15:00
7:35 AM,5.0,-0.4,78,30.36,10.0,NE,15.0,-,N/A,,Overcast,40,2014-02-04 13:35:00
7:55 AM,5.0,-2.2,72,30.37,10.0,NE,17.3,-,N/A,,Overcast,40,2014-02-04 13:55:00
8:15 AM,5.0,-2.2,72,30.37,10.0,NNE,12.7,18.4,N/A,Snow,Light Snow,30,2014-02-04 14:15:00
8:35 AM,3.2,-2.2,78,30.38,6.0,NNE,17.3,-,N/A,Snow,Light Snow,30,2014-02-04 14:35:00
8:55 AM,3.2,-2.2,78,30.38,5.0,NNE,16.1,-,N/A,Snow,Light Snow,30,2014-02-04 14:55:00
9:15 AM,3.2,-2.2,78,30.38,7.0,NNE,16.1,-,N/A,Rain,Freezing Rain,20,2014-02-04 15:15:00
9:35 AM,3.2,-4.0,72,30.38,9.0,NNE,15.0,20.7,N/A,Snow,Light Snow,20,2014-02-04 15:35:00
9:55 AM,3.2,-4.0,72,30.37,10.0,NNE,17.3,24.2,N/A,Rain,Freezing Rain,30,2014-02-04 15:55:00
10:15 AM,3.2,-4.0,72,30.37,10.0,NNE,20.7,26.5,N/A,Rain,Freezing Rain,30,2014-02-04 16:15:00
10:35 AM,3.2,-4.0,72,30.37,10.0,NNE,21.9,-,N/A,Snow,Light Snow,20,2014-02-04 16:35:00
10:55 AM,3.2,-5.8,66,30.37,9.0,NNE,20.7,-,N/A,Snow,Light Snow,30,2014-02-04 16:55:00
11:15 AM,3.2,-5.8,66,30.36,9.0,NNE,21.9,-,N/A,Rain,Freezing Rain,20,2014-02-04 17:15:00
11:35 AM,3.2,-5.8,66,30.38,10.0,NNE,18.4,25.3,N/A,Rain,Freezing Rain,30,2014-02-04 17:35:00
11:55 AM,5.0,-5.8,61,30.38,10.0,NE,19.6,-,N/A,,Overcast,40,2014-02-04 17:55:00
12:15 PM,3.2,-5.8,66,30.37,10.0,NNE,19.6,27.6,N/A,,Overcast,30,2014-02-04 18:15:00
12:35 PM,3.2,-5.8,66,30.35,6.0,NNE,24.2,29.9,N/A,Snow,Light Snow,20,2014-02-04 18:35:00
12:55 PM,3.2,-5.8,66,30.35,5.0,NNE,23.0,-,N/A,Snow,Light Snow,20,2014-02-04 18:55:00
1:15 PM,5.0,-5.8,61,30.35,5.0,NNE,18.4,25.3,N/A,Snow,Light Snow,30,2014-02-04 19:15:00
1:35 PM,3.2,-4.0,72,30.35,5.0,NNE,19.6,26.5,N/A,Snow,Light Snow,20,2014-02-04 19:35:00
1:55 PM,3.2,-4.0,72,30.35,6.0,NNE,19.6,26.5,N/A,Rain,Freezing Rain,20,2014-02-04 19:55:00
2:15 PM,5.0,-4.0,66,30.35,10.0,NNE,21.9,-,N/A,,Freezing Rain,20,2014-02-04 20:15:00
2:35 PM,5.0,-4.0,66,30.35,9.0,North,19.6,26.5,N/A,,Freezing Rain,10,2014-02-04 20:35:00
2:55 PM,5.0,-4.0,66,30.35,9.0,NNE,19.6,26.5,N/A,,Freezing Rain,20,2014-02-04 20:55:00
3:15 PM,5.0,-4.0,66,30.35,10.0,NNE,20.7,-,N/A,,Overcast,20,2014-02-04 21:15:00
3:35 PM,5.0,-4.0,66,30.35,10.0,NNE,19.6,-,N/A,,Overcast,20,2014-02-04 21:35:00
3:55 PM,5.0,-5.8,61,30.35,-9999.0,North,21.9,-,N/A,,Overcast,10,2014-02-04 21:55:00
4:15 PM,3.2,-5.8,66,30.36,10.0,North,20.7,-,N/A,,Overcast,10,2014-02-04 22:15:00
4:35 PM,3.2,-5.8,66,30.36,10.0,North,20.7,-,N/A,,Overcast,10,2014-02-04 22:35:00
4:55 PM,3.2,-5.8,66,30.35,6.0,North,23.0,31.1,N/A,,Haze,10,2014-02-04 22:55:00
5:15 PM,3.2,-5.8,66,30.35,5.0,North,24.2,31.1,N/A,,Haze,10,2014-02-04 23:15:00
5:35 PM,3.2,-5.8,66,30.36,4.0,North,24.2,31.1,N/A,,Freezing Rain,10,2014-02-04 23:35:00
5:55 PM,3.2,-5.8,66,30.37,5.0,North,21.9,29.9,N/A,,Haze,10,2014-02-04 23:55:00
6:15 PM,3.2,-7.6,61,30.38,9.0,North,23.0,31.1,N/A,,Overcast,10,2014-02-05 00:15:00
6:35 PM,1.4,-7.6,66,30.39,8.0,North,25.3,31.1,N/A,,Overcast,10,2014-02-05 00:35:00
6:55 PM,1.4,-7.6,66,30.40,8.0,North,20.7,28.8,N/A,Snow,Light Snow,10,2014-02-05 00:55:00
7:15 PM,1.4,-7.6,66,30.40,10.0,North,24.2,-,N/A,,Overcast,10,2014-02-05 01:15:00
7:35 PM,1.4,-7.6,66,30.41,10.0,North,17.3,27.6,N/A,,Overcast,360,2014-02-05 01:35:00
7:55 PM,1.4,-7.6,66,30.41,10.0,North,16.1,28.8,N/A,,Overcast,360,2014-02-05 01:55:00
8:15 PM,1.4,-9.4,61,30.41,10.0,North,20.7,27.6,N/A,,Overcast,360,2014-02-05 02:15:00
8:35 PM,1.4,-9.4,61,30.41,6.0,North,21.9,27.6,N/A,Rain,Freezing Rain,350,2014-02-05 02:35:00
8:55 PM,-0.4,-9.4,66,30.41,6.0,North,20.7,27.6,N/A,Rain,Freezing Rain,360,2014-02-05 02:55:00
9:15 PM,-0.4,-9.4,66,30.40,5.0,North,23.0,29.9,N/A,,Freezing Rain,360,2014-02-05 03:15:00
9:35 PM,-0.4,-9.4,66,30.41,6.0,North,23.0,29.9,N/A,,Freezing Rain,360,2014-02-05 03:35:00
9:55 PM,-0.4,-9.4,66,30.43,9.0,North,21.9,28.8,N/A,,Overcast,360,2014-02-05 03:55:00
10:15 PM,-0.4,-9.4,66,30.43,7.0,North,21.9,28.8,N/A,Rain,Freezing Rain,360,2014-02-05 04:15:00
10:35 PM,-0.4,-9.4,66,30.43,4.0,North,20.7,27.6,N/A,Rain,Freezing Rain,350,2014-02-05 04:35:00
10:55 PM,-0.4,-9.4,66,30.43,3.0,North,25.3,-,N/A,Snow,Light Snow,360,2014-02-05 04:55:00
11:15 PM,-0.4,-9.4,66,30.43,2.0,North,23.0,31.1,N/A,Rain,Freezing Rain,360,2014-02-05 05:15:00
11:35 PM,-0.4,-7.6,72,30.43,2.5,North,24.2,-,N/A,Snow,Light Snow,360,2014-02-05 05:35:00
11:55 PM,-0.4,-7.6,72,30.43,2.5,North,21.9,29.9,N/A,Snow,Light Snow,350,2014-02-05 05:55:00